Regional Weather Roundup
Issued by NWS

Home | Current Version | Previous Version | Graphics & Text | Print | Product List | Glossary On
Versions: 1 2 3 4 5 6 7 8 9 10 11 12 13 14 15 16 17 18 19 20 21 22 23 24 25 26 27 28 29 30 31 32 33 34 35 36 37 38 39 40 41 42 43 44 45 46 47 48 49 50
000
ASUS44 KMEG 291000
RWRTN
TENNESSEE HOURLY STATE WEATHER ROUNDUP
NATIONAL WEATHER SERVICE MEMPHIS TN
500 AM CDT SAT APR 29 2017

TNZ002-004-019-021-049-052-054-088>092-291100-
WEST TENNESSEE

CITY           SKY/WX    TMP DP  RH WIND       PRES   REMARKS
MEMPHIS INTL   CLOUDY    77  69  76 S13       29.84R
NWS MEMPHIS      N/A     76 N/A N/A MISG        N/A
JACKSON        CLOUDY    76  69  79 S8        29.88R
DYERSBURG      CLOUDY    76  69  79 S8        29.85R
$$

TNZ008-025-027-028-033-062-065-066-291100-
NORTH MIDDLE TENNESSEE

CITY           SKY/WX    TMP DP  RH WIND       PRES   REMARKS
NASHVILLE      CLOUDY    74  68  81 SE9       29.97R
CLARKSVILLE    CLOUDY    74  66  76 S7        29.92R
SMYRNA         CLOUDY    75  68  78 S5        29.98S
CROSSVILLE     CLEAR     68  64  87 VRB6      30.10R
$$

TNZ061-075-076-078-094-096-097-291100-
SOUTH MIDDLE TENNESSEE

CITY           SKY/WX    TMP DP  RH WIND       PRES   REMARKS
WINCHESTER     CLEAR     70  66  88 SE8       30.04R
COLUMBIA       MOCLDY    73  73 100 S5        29.94S
SHELBYVILLE    PTCLDY    73  70  88 SE5       30.01R
$$

TNZ017-018-042-046-047-291100-
NORTHEAST TENNESSEE

CITY           SKY/WX    TMP DP  RH WIND       PRES   REMARKS
TRI CITIES     MOCLDY    59  58  96 CALM      30.12S
$$

TNZ012-013-036-069-073-074-291100-
CENTRAL EAST TENNESSEE

CITY           SKY/WX    TMP DP  RH WIND       PRES   REMARKS
KNOXVILLE      CLEAR     64  61  90 NE6       30.07R
OAK RIDGE      CLOUDY    68  64  87 CALM      30.08R
GATLINBURG     CLEAR     61  59  94 CALM      30.08S
$$

TNZ083-085-099-291100-
SOUTHEAST TENNESSEE

CITY           SKY/WX    TMP DP  RH WIND       PRES   REMARKS
CHATTANOOGA    CLEAR     65  63  93 NW3       30.06R
$$

SKY/WX REPORTED AS FAIR MEANS FEW OR NO CLOUDS BELOW
12 THOUSAND FEET.




USA.gov is the U.S. government's official web portal to all federal, state and local government web resources and services.